Flag for Switzerland Weather past 2 weeks in Illnau-Effretikon, Zurich, Switzerland

Now
72 °F

Mild.


Feels Like: 76 °F
Forecast: 55 / 88 °F
Wind: 1 mph from Southwest

Location: Zurich Town / Ville.

Current Time: Jun 30, 2015 at 10:58:32 AM

Latest Report: Jun 30, 2015 at 10:00 AM


Visibility: N/A

Pressure: 30.11 "Hg

Humidity: 59%

Dew point: 56 °F

Location of Illnau-EffretikonLocation

Historic Weather in Illnau-Effretikon — Graph

°F

Illnau-Effretikon temperature yesterday

Maximum temperature yesterday: 80 °F (at 5:00 PM)
Minimum temperature yesterday: 59 °F (at 6:00 AM)
Average temperature yesterday: 70 °F

Past Weeks' High & Low Weather Summary

 TemperatureHumidityPressure
High80 °F (Jun 29, 5:00 PM)98% (Jun 15, 10:00 AM)30.23 "Hg (Jun 15, 10:00 AM)
Low47 °F (Jun 24, 5:00 AM)26% (Jun 25, 8:00 PM)29.70 "Hg (Jun 22, 10:00 PM)
Average62 °F70%30.09 "Hg
* Reported Jun 15 9:00 AM — Jun 30 9:00 AM, Illnau-Effretikon, Weather by CustomWeather, © 2015

Note: Actual official high and low records may vary slightly from our data, if they occured in-between our weather recording intervals... More about our weather records

Advertising

Illnau-Effretikon weather history for previous 24 hours

 ConditionsComfort  
Time TempWeatherWind HumidityBarometerVisibility
9:00 AM
Tue, Jun 30
68 °FMild.1 mph66%30.13 "HgN/A
8:00 AM64 °FMild.1 mph71%30.14 "HgN/A
7:00 AM60 °FCool.3 mph86%30.16 "HgN/A
6:00 AM60 °FCool.1 mph81%30.15 "HgN/A
5:00 AM61 °FCool.1 mph81%30.14 "HgN/A
4:00 AM62 °FCool.1 mph78%30.14 "HgN/A
3:00 AM63 °FMild.2 mph74%30.15 "HgN/A
2:00 AM64 °FMild.1 mph73%30.16 "HgN/A
1:00 AM65 °FMild.1 mph71%30.16 "HgN/A
12:00 AM66 °FMild.No wind64%30.16 "HgN/A
10:00 PM
Mon, Jun 29
69 °FMild.1 mph55%30.15 "HgN/A
9:00 PM72 °FMild.1 mph51%30.13 "HgN/A
8:00 PM76 °FMild.1 mph43%30.11 "HgN/A
7:00 PM79 °FPleasantly warm.1 mph33%30.09 "HgN/A
6:00 PM80 °FPleasantly warm.5 mph34%30.09 "HgN/A
5:00 PM80 °FPleasantly warm.5 mph31%30.09 "HgN/A
4:00 PM78 °FPleasantly warm.1 mph38%30.11 "HgN/A
3:00 PM79 °FPleasantly warm.3 mph34%30.11 "HgN/A
2:00 PM76 °FMild.2 mph43%30.13 "HgN/A
1:00 PM76 °FMild.2 mph42%30.12 "HgN/A
12:00 PM74 °FMild.3 mph48%30.14 "HgN/A
11:00 AM70 °FMild.3 mph58%30.15 "HgN/A
10:00 AM67 °FMild.2 mph67%30.17 "HgN/A
Weather by CustomWeather, © 2015

See weather overviewHow to use our weather pages